GW5284 Weather Reports


time (UTC)temp
F
wind
direction
speed
knots
gust
knots
rain 1hr
in
rain 24hr
in
rain mn
in
humidity
%
barometer
mb
20260507090348 52 174 1.7 1.7 0.00 0.00 0.00 79 1021.0
20260507085845 52 204 1.7 1.7 0.00 0.00 0.00 79 1021.1
20260507085342 52 166 0.9 0.9 0.00 0.00 0.00 79 1021.1
20260507084840 52 124 0.9 1.7 0.00 0.00 0.00 80 1021.1
20260507084336 52 89 0.9 1.7 0.00 0.00 0.00 80 1021.1
20260507083834 52 138 0.9 0.9 0.00 0.00 0.00 80 1021.2
20260507083330 52 190 1.7 2.6 0.00 0.00 0.00 80 1021.1
20260507082826 52 190 1.7 1.7 0.00 0.00 0.00 80 1021.2
20260507082321 52 171 1.7 1.7 0.00 0.00 0.00 81 1021.2
20260507081819 52 180 1.7 2.6 0.00 0.00 0.00 81 1021.0
20260507081315 52 191 1.7 2.6 0.00 0.00 0.00 82 1021.2
20260507080811 52 182 2.6 5.2 0.00 0.00 0.00 81 1021.1
20260507080308 52 170 1.7 2.6 0.00 0.00 0.00 81 1021.2
20260507075803 52 202 1.7 1.7 0.00 0.00 0.00 82 1021.3
20260507075259 52 182 2.6 3.5 0.00 0.00 0.00 82 1021.2
20260507074756 52 197 3.5 5.2 0.00 0.00 0.00 83 1021.3
20260507074254 52 213 3.5 3.5 0.00 0.00 0.00 84 1021.2
20260507073751 52 182 0.9 1.7 0.00 0.00 0.00 84 1021.1
20260507073247 52 215 2.6 2.6 0.00 0.00 0.00 85 1021.2
20260507072745 52 204 1.7 1.7 0.00 0.00 0.00 86 1021.1
20260507072242 52 150 1.7 1.7 0.00 0.00 0.00 86 1021.2
20260507071739 52 105 0.0 0.9 0.00 0.00 0.00 87 1021.2
20260507071236 52 180 0.9 1.7 0.00 0.00 0.00 87 1021.1
20260507070733 52 152 1.7 1.7 0.00 0.00 0.00 87 1021.0
20260507070230 52 99 0.0 0.9 0.00 0.00 0.00 88 1021.1
20260507065726 52 250 1.7 2.6 0.00 0.00 0.00 88 1021.2
20260507065223 52 196 1.7 2.6 0.00 0.00 0.00 89 1021.1
20260507064720 51 203 1.7 1.7 0.00 0.00 0.00 90 1021.2
20260507064220 52 165 1.7 1.7 0.00 0.00 0.00 91 1021.3
20260507063716 52 102 0.0 0.0 0.00 0.00 0.00 91 1021.2
20260507063213 52 165 1.7 1.7 0.00 0.00 0.00 90 1021.1
20260507062710 52 143 1.7 2.6 0.00 0.00 0.00 90 1021.0
20260507062208 52 164 1.7 1.7 0.00 0.00 0.00 89 1021.2
20260507061705 52 240 2.6 3.5 0.00 0.00 0.00 88 1021.2
20260507061203 52 212 4.3 6.1 0.00 0.00 0.00 87 1021.0
20260507060701 52 287 1.7 2.6 0.00 0.00 0.00 87 1021.3
20260507060157 52 58 0.0 0.9 0.00 0.00 0.00 87 1021.1
20260507055653 52 258 2.6 2.6 0.00 0.00 0.00 86 1021.1
20260507055149 53 222 1.7 1.7 0.00 0.00 0.00 86 1021.3
20260507054645 53 224 0.9 0.9 0.00 0.00 0.00 85 1021.2
20260507054142 53 58 0.0 0.0 0.00 0.00 0.00 84 1021.2
20260507053640 53 59 0.0 0.0 0.00 0.00 0.00 83 1021.2
20260507053138 53 36 0.0 0.0 0.00 0.00 0.00 82 1021.2
20260507052636 54 113 1.7 1.7 0.00 0.00 0.00 81 1021.3
20260507052132 54 48 0.9 0.9 0.00 0.00 0.00 80 1021.2
20260507051630 54 70 0.0 0.0 0.00 0.00 0.00 79 1021.2
20260507051126 55 82 0.0 0.9 0.00 0.00 0.00 78 1021.3
20260507050623 55 224 3.5 5.2 0.00 0.00 0.00 77 1021.1
20260507050120 55 206 2.6 2.6 0.00 0.00 0.00 78 1021.1
20260507045617 55 78 0.0 0.0 0.00 0.00 0.00 78 1021.2
20260507045113 55 206 1.7 2.6 0.00 0.00 0.00 78 1021.1
20260507044610 55 46 0.9 1.7 0.00 0.00 0.00 78 1021.2
20260507044107 55 64 0.9 1.7 0.00 0.00 0.00 78 1021.1
20260507043603 55 148 1.7 2.6 0.00 0.00 0.00 77 1021.1
20260507043100 55 224 3.5 7.8 0.00 0.00 0.00 77 1021.1
20260507042556 55 134 0.9 0.9 0.00 0.00 0.00 77 1021.1
20260507042052 55 244 0.9 1.7 0.00 0.00 0.00 77 1021.1
20260507041549 55 196 2.6 2.6 0.00 0.00 0.00 77 1021.0
20260507041046 55 129 0.0 0.0 0.00 0.00 0.00 77 1020.9
20260507040542 55 122 0.9 0.9 0.00 0.00 0.00 77 1021.1
20260507040038 55 288 2.6 2.6 0.00 0.00 0.00 76 1021.1
20260507035535 55 181 0.9 1.7 0.00 0.00 0.00 77 1020.9
20260507035031 55 211 3.5 3.5 0.00 0.00 0.00 76 1020.9
20260507034528 55 115 0.9 0.9 0.00 0.00 0.00 77 1020.8
20260507034026 55 210 1.7 2.6 0.00 0.00 0.00 77 1021.0
20260507033524 56 206 1.7 2.6 0.00 0.00 0.00 77 1020.9
20260507033021 56 153 0.9 1.7 0.00 0.00 0.00 77 1020.8
20260507032518 56 118 1.7 1.7 0.00 0.00 0.00 76 1020.8
20260507032014 56 178 1.7 2.6 0.00 0.00 0.00 77 1020.7
20260507031510 56 224 2.6 3.5 0.00 0.00 0.00 76 1020.5
20260507031008 56 202 0.9 0.9 0.00 0.00 0.00 77 1020.5
20260507030504 56 160 3.5 5.2 0.00 0.00 0.00 76 1020.4
20260507030002 56 230 1.7 3.5 0.00 0.00 0.00 76 1020.4
20260507025458 56 285 1.7 2.6 0.00 0.00 0.00 76 1020.5
20260507024956 56 102 0.9 0.9 0.00 0.00 0.00 76 1020.4
20260507024453 56 196 0.9 0.9 0.00 0.00 0.00 76 1020.5
20260507023949 56 64 0.9 1.7 0.00 0.00 0.00 75 1020.5
20260507023446 56 72 0.0 0.0 0.00 0.00 0.00 75 1020.4
20260507022943 56 239 1.7 2.6 0.00 0.00 0.00 75 1020.3
20260507022441 56 232 2.6 2.6 0.00 0.00 0.00 75 1020.4
20260507021936 56 15 0.9 0.9 0.00 0.00 0.00 75 1020.1
20260507021431 56 194 3.5 3.5 0.00 0.00 0.00 75 1020.3
20260507020929 57 2 3.5 6.1 0.00 0.00 0.00 74 1020.3
20260507020426 57 248 2.6 3.5 0.00 0.00 0.00 74 1020.4
20260507015923 57 230 2.6 2.6 0.00 0.00 0.00 75 1020.5
20260507015421 57 220 0.9 1.7 0.00 0.00 0.00 74 1020.4
20260507014918 57 95 1.7 1.7 0.00 0.00 0.00 73 1020.4
20260507014414 57 326 1.7 1.7 0.00 0.00 0.00 74 1020.3
20260507013910 57 185 1.7 1.7 0.00 0.00 0.00 73 1020.3
20260507013408 57 270 1.7 2.6 0.00 0.00 0.00 73 1020.5
20260507012905 58 74 0.0 0.9 0.00 0.00 0.00 73 1020.4
20260507012401 58 146 2.6 3.5 0.00 0.00 0.00 74 1020.5
20260507011858 58 155 1.7 2.6 0.00 0.00 0.00 72 1020.5
20260507011355 59 81 1.7 2.6 0.00 0.00 0.00 72 1020.3
20260507010855 59 151 1.7 1.7 0.00 0.00 0.00 73 1020.3
20260507010351 59 43 0.9 0.9 0.00 0.00 0.00 72 1020.3
20260507005848 59 169 1.7 2.6 0.00 0.00 0.00 73 1020.5
20260507005345 59 218 1.7 2.6 0.00 0.00 0.00 72 1020.2
20260507004842 59 68 0.9 0.9 0.00 0.00 0.00 72 1020.6
20260507004339 59 211 3.5 3.5 0.00 0.00 0.00 72 1020.5
20260507003836 59 218 3.5 3.5 0.00 0.00 0.00 72 1020.4
20260507003331 60 255 3.5 3.5 0.00 0.00 0.00 72 1020.4
20260507002826 59 51 0.0 0.9 0.00 0.00 0.00 73 1020.4
20260507002322 59 13 2.6 2.6 0.00 0.00 0.00 73 1020.2
20260507001820 58 9 0.9 0.9 0.00 0.00 0.00 73 1020.3
20260507001317 58 23 0.9 0.9 0.00 0.00 0.00 73 1020.5
20260507000813 58 290 1.7 2.6 0.00 0.00 0.00 73 1020.4
20260507000309 59 234 4.3 7.0 0.00 0.00 0.00 72 1020.5
20260506235806 59 221 5.2 6.1 0.00 0.00 0.00 70 1020.4
20260506235306 59 219 1.7 1.7 0.00 0.00 0.00 71 1020.4
20260506234759 59 203 3.5 3.5 0.00 0.00 0.00 71 1020.4
20260506234256 59 97 0.0 0.9 0.00 0.00 0.00 71 1020.3
20260506233754 59 315 1.7 2.6 0.00 0.00 0.00 71 1020.5
20260506233250 59 226 6.1 7.0 0.00 0.00 0.00 70 1020.4
20260506232747 59 247 1.7 3.5 0.00 0.00 0.00 71 1020.4
20260506232241 59 238 3.5 5.2 0.00 0.00 0.00 70 1020.5
20260506231739 60 204 6.1 7.8 0.00 0.00 0.00 69 1020.5
20260506231238 60 277 1.7 2.6 0.00 0.00 0.00 69 1020.4
20260506230734 60 210 1.7 1.7 0.00 0.00 0.00 69 1020.3
20260506230231 60 201 1.7 1.7 0.00 0.00 0.00 68 1020.4
20260506225727 60 68 0.0 0.9 0.00 0.00 0.00 69 1020.6
20260506225224 60 62 0.9 0.9 0.00 0.00 0.00 71 1020.4
20260506224721 60 256 3.5 5.2 0.00 0.00 0.00 69 1020.6
20260506224218 59 218 6.1 7.0 0.00 0.00 0.00 69 1020.6
20260506223714 59 213 4.3 5.2 0.00 0.00 0.00 69 1020.7
20260506223210 59 58 1.7 1.7 0.00 0.00 0.00 71 1020.8
20260506222707 59 264 3.5 5.2 0.00 0.00 0.00 70 1020.8
20260506222202 59 308 3.5 3.5 0.00 0.00 0.00 70 1020.6
20260506221701 60 157 3.5 3.5 0.00 0.00 0.00 70 1020.8
20260506221159 60 291 2.6 3.5 0.00 0.00 0.00 70 1020.6
20260506220655 60 48 0.0 0.9 0.00 0.00 0.00 70 1020.8
20260506220150 60 186 4.3 6.1 0.00 0.00 0.00 70 1020.7
20260506215647 60 57 4.3 6.1 0.00 0.00 0.00 69 1020.8
20260506215142 59 248 2.6 3.5 0.00 0.00 0.00 70 1020.8
20260506214639 60 224 4.3 6.1 0.00 0.00 0.00 69 1020.8
20260506214137 60 16 0.9 0.9 0.00 0.00 0.00 70 1020.8
20260506213635 59 214 6.1 7.8 0.00 0.00 0.00 69 1020.8
20260506213132 60 217 4.3 7.0 0.00 0.00 0.00 70 1020.7
20260506212629 60 157 0.9 1.7 0.00 0.00 0.00 71 1020.7
20260506212124 60 210 4.3 7.0 0.00 0.00 0.00 70 1020.8
20260506211619 60 303 0.9 1.7 0.00 0.00 0.00 70 1020.7
20260506211117 60 173 2.6 3.5 0.00 0.00 0.00 67 1020.8
20260506210614 60 211 3.5 5.2 0.00 0.00 0.00 67 1020.7
20260506210110 60 105 0.0 0.9 0.00 0.00 0.00 69 1020.6
20260506205607 60 209 2.6 5.2 0.00 0.00 0.00 69 1020.6
20260506205102 60 219 2.6 3.5 0.00 0.00 0.00 69 1020.7
20260506204600 60 228 5.2 6.1 0.00 0.00 0.00 69 1020.8
20260506204057 60 12 1.7 2.6 0.00 0.00 0.00 70 1020.7
20260506203555 60 230 0.9 1.7 0.00 0.00 0.00 71 1020.7
20260506203051 59 83 0.9 0.9 0.00 0.00 0.00 70 1020.5
20260506202549 60 352 1.7 1.7 0.00 0.00 0.00 70 1020.4
20260506202045 59 103 1.7 3.5 0.00 0.00 0.00 70 1020.6
20260506201543 59 164 0.9 0.9 0.00 0.00 0.00 72 1020.6
20260506201039 59 58 2.6 3.5 0.00 0.00 0.00 71 1020.7
20260506200536 59 118 2.6 5.2 0.00 0.00 0.00 71 1020.5
20260506200032 58 189 2.6 3.5 0.00 0.00 0.00 72 1020.5
20260506195529 58 209 4.3 5.2 0.00 0.00 0.00 71 1020.4
20260506195025 58 236 3.5 5.2 0.00 0.00 0.00 71 1020.6
20260506194523 59 211 5.2 7.0 0.00 0.00 0.00 71 1020.6
20260506194020 59 213 1.7 3.5 0.00 0.00 0.00 72 1020.4
20260506193517 59 11 1.7 2.6 0.00 0.00 0.00 71 1020.4
20260506193014 59 230 3.5 5.2 0.00 0.00 0.00 71 1020.3
20260506192511 59 237 0.9 1.7 0.00 0.00 0.00 72 1020.2
20260506192007 59 211 4.3 7.0 0.00 0.00 0.00 72 1020.4
20260506191504 58 64 0.0 0.9 0.00 0.00 0.00 75 1020.3
20260506191000 58 230 5.2 7.0 0.00 0.00 0.00 74 1020.5
20260506190457 57 200 4.3 6.1 0.00 0.00 0.00 75 1020.3
20260506185953 57 318 2.6 3.5 0.00 0.00 0.00 76 1020.2
20260506185451 57 234 3.5 5.2 0.00 0.00 0.00 76 1020.4
20260506184948 57 221 6.1 7.8 0.00 0.00 0.00 76 1020.4
20260506184445 57 194 2.6 2.6 0.00 0.00 0.00 77 1020.4
20260506183942 57 243 0.9 1.7 0.00 0.00 0.00 78 1020.5
20260506183437 57 233 0.9 0.9 0.00 0.00 0.00 77 1020.5
20260506182935 57 134 1.7 1.7 0.00 0.00 0.00 78 1020.3
20260506182432 57 236 4.3 6.1 0.00 0.00 0.00 77 1020.4
20260506181929 57 221 4.3 6.1 0.00 0.00 0.00 76 1020.4
20260506181427 57 355 0.9 0.9 0.00 0.00 0.00 79 1020.2
20260506180923 56 305 2.6 2.6 0.00 0.00 0.00 79 1020.2
20260506180420 57 215 3.5 3.5 0.00 0.00 0.00 78 1020.1
20260506175917 57 303 0.9 1.7 0.00 0.00 0.00 78 1020.2
20260506175414 56 194 2.6 2.6 0.00 0.00 0.00 78 1020.3
20260506174910 57 223 1.7 1.7 0.00 0.00 0.00 78 1020.1
20260506174408 57 282 1.7 1.7 0.00 0.00 0.00 78 1020.3
20260506173905 56 94 0.0 0.0 0.00 0.00 0.00 79 1019.9
20260506173402 56 44 1.7 1.7 0.00 0.00 0.00 80 1020.2
20260506172859 56 233 3.5 3.5 0.00 0.00 0.00 79 1020.2
20260506172355 55 208 5.2 6.1 0.00 0.00 0.00 80 1020.2
20260506171853 55 224 2.6 2.6 0.00 0.00 0.00 80 1020.3
20260506171350 55 229 5.2 6.1 0.00 0.00 0.00 80 1020.2
20260506170848 55 208 2.6 3.5 0.00 0.00 0.00 80 1020.2
20260506170344 55 208 5.2 6.1 0.00 0.00 0.00 80 1020.1
20260506165843 55 198 5.2 5.2 0.00 0.00 0.00 81 1020.1
20260506165341 55 217 4.3 5.2 0.00 0.00 0.00 81 1020.2
20260506164836 55 221 4.3 6.1 0.00 0.00 0.00 81 1020.2
20260506164333 55 339 2.6 2.6 0.00 0.00 0.00 82 1020.1
20260506163831 55 238 2.6 2.6 0.00 0.00 0.00 81 1019.9
20260506163325 55 202 2.6 6.1 0.00 0.00 0.00 82 1019.9
20260506162821 55 154 1.7 2.6 0.00 0.00 0.00 81 1019.9
20260506162319 55 225 4.3 7.0 0.00 0.00 0.00 81 1019.7
20260506161811 54 203 2.6 3.5 0.00 0.00 0.00 83 1019.7
20260506161308 54 228 3.5 5.2 0.00 0.00 0.00 82 1019.7
20260506160805 55 218 3.5 5.2 0.00 0.00 0.00 82 1019.9
20260506160301 54 151 1.7 1.7 0.00 0.00 0.00 83 1020.0
20260506155801 54 220 0.9 2.6 0.00 0.00 0.00 83 1019.9
20260506155257 54 163 1.7 1.7 0.00 0.00 0.00 84 1020.0
20260506153404 54 205 3.5 3.5 0.00 0.00 0.00 84 1020.1
20260506152901 54 256 2.6 3.5 0.00 0.00 0.00 85 1019.8
20260506152358 53 150 2.6 3.5 0.00 0.00 0.00 85 1019.7
20260506151856 53 164 1.7 2.6 0.00 0.00 0.00 86 1019.8
20260506151353 53 186 2.6 2.6 0.00 0.00 0.00 86 1019.7
20260506150850 53 238 3.5 3.5 0.00 0.00 0.00 86 1019.7
20260506150346 53 220 3.5 3.5 0.00 0.00 0.00 86 1019.8
20260506145843 53 176 1.7 1.7 0.00 0.00 0.00 88 1020.0
20260506145339 53 213 2.6 2.6 0.00 0.00 0.00 87 1019.8
20260506144837 53 246 1.7 1.7 0.00 0.00 0.00 87 1019.8
20260506144334 53 146 1.7 2.6 0.00 0.00 0.00 87 1019.7
20260506143832 53 190 2.6 3.5 0.00 0.00 0.00 87 1019.5
20260506143329 53 147 3.5 5.2 0.00 0.00 0.00 87 1019.6
20260506142827 53 220 3.5 3.5 0.00 0.00 0.00 87 1019.5
20260506142325 53 130 1.7 1.7 0.00 0.00 0.00 87 1019.3
20260506141823 53 166 1.7 1.7 0.00 0.00 0.00 88 1019.4
20260506141321 53 199 1.7 2.6 0.00 0.00 0.00 87 1019.6
20260506140818 53 229 1.7 2.6 0.00 0.00 0.00 87 1019.4
20260506140315 53 177 2.6 3.5 0.00 0.00 0.00 87 1019.4
20260506135812 53 200 2.6 2.6 0.00 0.00 0.00 87 1019.6
20260506135308 53 201 1.7 1.7 0.00 0.00 0.00 88 1019.5
20260506134805 53 166 1.7 1.7 0.00 0.00 0.00 88 1019.2
20260506134301 53 195 0.9 1.7 0.00 0.00 0.00 88 1019.5
20260506133759 53 183 3.5 5.2 0.00 0.00 0.00 88 1019.5
20260506133255 53 165 3.5 5.2 0.00 0.00 0.00 88 1019.4
20260506132752 53 196 1.7 2.6 0.00 0.00 0.00 88 1019.4
20260506132249 53 215 1.7 1.7 0.00 0.00 0.00 88 1019.5
20260506131747 53 231 2.6 2.6 0.00 0.00 0.00 88 1019.3
20260506131243 53 217 4.3 6.1 0.00 0.00 0.00 88 1019.1
20260506130740 53 219 3.5 3.5 0.00 0.00 0.00 88 1019.1
20260506130237 53 182 3.5 3.5 0.00 0.00 0.00 88 1019.2
20260506125735 53 231 2.6 2.6 0.00 0.00 0.00 87 1019.1
20260506125233 53 202 2.6 2.6 0.00 0.00 0.00 87 1018.9
20260506124731 53 204 3.5 5.2 0.00 0.00 0.00 87 1019.0
20260506124228 53 281 2.6 2.6 0.00 0.00 0.00 87 1019.0
20260506123725 53 211 4.3 5.2 0.00 0.00 0.00 87 1019.0
20260506123224 53 203 3.5 3.5 0.00 0.00 0.00 86 1018.9
20260506122720 53 209 2.6 3.5 0.00 0.00 0.00 86 1018.9
20260506122218 53 225 3.5 3.5 0.00 0.00 0.00 85 1018.9
20260506121716 54 144 0.9 0.9 0.00 0.00 0.00 86 1018.9
20260506121212 54 231 2.6 3.5 0.00 0.00 0.00 86 1018.8
20260506120710 54 231 2.6 3.5 0.00 0.00 0.00 85 1019.0
20260506120207 54 165 1.7 2.6 0.00 0.00 0.00 85 1018.8
20260506115705 54 212 1.7 1.7 0.00 0.00 0.00 86 1018.5
20260506115203 54 231 3.5 3.5 0.00 0.00 0.00 86 1018.4
20260506114700 54 196 1.7 1.7 0.00 0.00 0.00 86 1018.4
20260506114158 53 100 0.0 0.0 0.00 0.00 0.00 87 1018.6
20260506113656 53 144 0.0 0.9 0.00 0.00 0.00 87 1018.5
20260506113153 53 113 0.0 0.9 0.00 0.00 0.00 88 1018.6
20260506112649 53 76 0.0 0.0 0.00 0.00 0.00 88 1018.6
20260506112147 53 213 0.0 0.9 0.00 0.00 0.00 88 1018.7
20260506111644 53 79 0.0 0.0 0.00 0.00 0.00 88 1018.7
20260506111142 53 58 0.0 0.0 0.00 0.00 0.00 88 1018.7
20260506110639 53 91 0.9 1.7 0.00 0.00 0.00 87 1018.4
20260506110136 53 5 0.9 1.7 0.00 0.00 0.00 87 1018.4
20260506105633 53 90 0.0 0.0 0.00 0.00 0.00 87 1018.4
20260506105130 53 91 0.0 0.9 0.00 0.00 0.00 86 1018.3
20260506104628 53 66 0.0 0.0 0.00 0.00 0.00 86 1018.4
20260506104125 53 69 0.0 0.0 0.00 0.00 0.00 86 1018.6
20260506103623 54 61 0.0 0.0 0.00 0.00 0.00 86 1018.4
20260506103119 54 59 0.0 0.0 0.00 0.00 0.00 85 1018.2
20260506102618 54 45 0.0 0.0 0.00 0.00 0.00 85 1018.1
20260506102115 54 60 0.0 0.0 0.00 0.00 0.00 85 1018.3
20260506101611 54 199 1.7 1.7 0.00 0.00 0.00 85 1018.1
20260506101108 54 199 0.9 0.9 0.00 0.00 0.00 85 1018.1
20260506100607 54 220 0.9 0.9 0.00 0.00 0.00 85 1017.8
20260506100104 54 222 0.0 0.0 0.00 0.00 0.00 85 1017.9
20260506095603 54 223 0.9 0.9 0.00 0.00 0.00 85 1017.9
20260506095059 54 45 0.0 0.0 0.00 0.00 0.00 85 1018.0
20260506094557 54 75 0.0 0.0 0.00 0.00 0.00 85 1017.9
20260506094054 54 186 1.7 1.7 0.00 0.00 0.00 85 1017.7
20260506093552 54 145 0.0 0.0 0.00 0.00 0.00 85 1017.7
20260506093049 54 0 0.9 0.9 0.00 0.00 0.00 85 1017.5
20260506092548 54 213 2.6 2.6 0.00 0.00 0.00 85 1017.7
20260506092044 54 192 1.7 2.6 0.00 0.00 0.00 85 1017.9
20260506091542 54 213 1.7 1.7 0.00 0.00 0.00 85 1017.6
20260506091039 54 123 0.9 1.7 0.00 0.00 0.00 85 1017.8